Sella Ronda, Italy 16 day weather forecast

Slopes altitude range 1005 m - 3250m

Number of lifts: 179 Pistes: 433km

In some cases the lift and piste totals shown are for the ski domain (e.g. Three Valleys) rather than individual resort (e.g. Courchevel)

Overview

The 16 day weather forecast is fully updated 4 times every day.

    • Mon 22 APR 2019
    • Mon 22
    • 6C 14C
    • Tue 23 APR 2019
    • Tue 23
    • 4C 10C
    • Wed 24 APR 2019
    • Wed 24
    • 5C 10C
    • Thu 25 APR 2019
    • Thu 25
    • 5C 10C
    • Fri 26 APR 2019
    • Fri 26
    • 6C 9C
    • Sat 27 APR 2019
    • Sat 27
    • 2C 13C
    • Sun 28 APR 2019
    • Sun 28
    • 6C 16C
    • Mon 29 APR 2019
    • Mon 29
    • 8C 15C
    • Tue 30 APR 2019
    • Tue 30
    • -5C -2C
    • Wed 01 MAY 2019
    • Wed 01
    • -7C -3C
    • Thu 02 MAY 2019
    • Thu 02
    • -9C 0C
    • Fri 03 MAY 2019
    • Fri 03
    • -7C 3C
    • Sat 04 MAY 2019
    • Sat 04
    • -1C 6C
    • Sun 05 MAY 2019
    • Sun 05
    • 1C 8C
    • Mon 06 MAY 2019
    • Mon 06
    • 0C 2C
    • Tue 07 MAY 2019
    • Tue 07
    • -5C -3C

Date:

Time Type 0°C level Temp Chill Snow Cloud Speed Gust Dir Press
3:00 2649m 2°C 2_4 0cm 76% 4mph 4mph 1018mB
6:00 2588m 2°C 2_1 0cm 66% 1mph 2mph 1016mB
9:00 2701m 6°C 6_3 0cm 38% 3mph 4mph 1013mB
12:00 2760m 14°C 14_5 0cm 27% 5mph 6mph 1010mB
15:00 2711m 14°C 14_6 0cm 48% 6mph 7mph 1008mB
18:00 2474m 14°C 14_4 0cm 65% 4mph 4mph 1008mB
21:00 2383m 3°C 3_1 0cm 90% 1mph 2mph 1009mB
0:00 2206m 3°C 3_1 0cm 95% 1mph 2mph 1007mB
3:00 2232m 2°C 2_3 0cm 99% 3mph 3mph 1005mB
6:00 2224m 2°C 2_2 0cm 99% 2mph 3mph 1004mB
9:00 2263m 4°C 4_3 0cm 95% 3mph 4mph 1003mB
12:00 2311m 10°C 10_4 0cm 96% 4mph 5mph 1003mB
15:00 2263m 9°C 9_3 0cm 100% 3mph 3mph 1003mB
18:00 2383m 9°C 9_2 0cm 98% 2mph 2mph 1004mB
21:00 2378m 3°C 3_1 0cm 99% 1mph 1mph 1007mB
0:00 2331m 3°C 3_1 0cm 90% 1mph 2mph 1008mB
3:00 2313m 3°C 3_2 0cm 87% 2mph 3mph 1009mB
6:00 2309m 3°C 3_2 0cm 88% 2mph 3mph 1010mB
9:00 2380m 5°C 5_5 0cm 94% 5mph 7mph 1011mB
12:00 2561m 10°C 10_7 0cm 87% 7mph 10mph 1011mB
15:00 2582m 11°C 11_7 0cm 88% 7mph 11mph 1011mB
18:00 2568m 11°C 11_5 0cm 88% 5mph 9mph 1013mB
21:00 2577m 6°C 6_3 0cm 99% 3mph 5mph 1017mB
0:00 2424m 5°C 5_3 0cm 96% 3mph 3mph 1018mB
3:00 2275m 4°C 4_2 0cm 88% 2mph 4mph 1018mB
6:00 2242m 4°C 4_2 0cm 86% 2mph 4mph 1018mB
9:00 2357m 5°C 5_4 0cm 87% 4mph 6mph 1018mB
12:00 2566m 10°C 10_5 0cm 89% 5mph 7mph 1017mB
15:00 2692m 11°C 11_5 0cm 95% 5mph 8mph 1016mB
18:00 2680m 11°C 11_4 0cm 91% 4mph 6mph 1016mB
21:00 2620m 6°C 6_3 0cm 86% 3mph 4mph 1017mB
0:00 2569m 5°C 5_3 0cm 84% 3mph 4mph 1016mB
3:00 2470m 5°C 5_3 0cm 78% 3mph 4mph 1015mB
6:00 2362m 5°C 5_4 0cm 77% 4mph 6mph 1015mB
9:00 2341m 6°C 6_5 0cm 73% 5mph 8mph 1016mB
12:00 2317m 9°C 9_8 0cm 79% 8mph 12mph 1017mB
15:00 2235m 8°C 8_2 0cm 80% 2mph 5mph 1018mB
18:00 1808m 8°C 8_7 3cm 90% 7mph 12mph 1019mB
21:00 1794m 1°C 1_5 1cm 100% 5mph 9mph 1022mB
0:00 1809m 0°C 0_6 1cm 100% 6mph 9mph 1023mB
3:00 1877m 0°C 0_5 0cm 97% 5mph 7mph 1024mB
6:00 1888m -1°C -1_5 0cm 65% 5mph 7mph 1025mB
9:00 2122m 2°C 2_3 0cm 2% 3mph 5mph 1024mB
12:00 2377m 13°C 13_3 0cm 1% 3mph 5mph 1023mB
15:00 2537m 13°C 13_4 0cm 0% 4mph 5mph 1023mB
18:00 2551m 13°C 13_4 0cm 4% 4mph 5mph 1024mB
21:00 2404m 2°C 2_5 0cm 9% 5mph 6mph 1027mB
0:00 2491m 2°C 2_5 0cm 33% 5mph 5mph 1027mB
3:00 2505m 1°C 1_4 0cm 60% 4mph 5mph 1026mB
6:00 2707m 1°C 1_3 0cm 72% 3mph 3mph 1025mB
9:00 2798m 6°C 6_2 0cm 97% 2mph 2mph 1023mB
12:00 2812m 16°C 16_4 0cm 90% 4mph 4mph 1022mB
15:00 2898m 16°C 16_4 0cm 23% 4mph 5mph 1020mB
18:00 2912m 16°C 16_3 0cm 22% 3mph 4mph 1021mB
21:00 2918m 5°C 5_3 0cm 42% 3mph 3mph 1022mB
0:00 2872m 4°C 4_3 0cm 40% 3mph 3mph 1021mB
3:00 2789m 4°C 4_2 0cm 47% 2mph 3mph 1019mB
6:00 2723m 3°C 3_1 0cm 58% 1mph 1mph 1017mB
9:00 2675m 8°C 8_5 0cm 66% 5mph 6mph 1015mB
12:00 2820m 15°C 15_6 0cm 69% 6mph 9mph 1011mB
15:00 3057m 5°C 5_5 0cm 100% 5mph 7mph 1008mB
18:00 2900m 5°C 5_3 0cm 100% 3mph 4mph 1008mB
21:00 2771m 0°C 0_6 1cm 99% 6mph 7mph 1008mB
0:00 2562m 0°C 0_5 2cm 99% 5mph 7mph 1007mB
3:00 2391m -1°C -1_5 4cm 100% 5mph 6mph 1006mB
6:00 2061m -3°C -3_10 5cm 100% 10mph 13mph 1007mB
9:00 1755m -5°C -5_8 4cm 100% 8mph 10mph 1007mB
12:00 2058m -2°C -2_9 3cm 100% 9mph 10mph 1007mB
15:00 2200m -2°C -2_11 1cm 92% 11mph 12mph 1007mB
18:00 1678m -2°C -2_10 1cm 91% 10mph 12mph 1010mB
21:00 1224m -8°C -8_7 1cm 92% 7mph 7mph 1013mB
0:00 1020m -10°C -10_6 1cm 88% 6mph 7mph 1015mB
3:00 881m -10°C -10_5 0cm 65% 5mph 6mph 1015mB
6:00 1407m -11°C -11_5 0cm 64% 5mph 6mph 1015mB
9:00 1854m -7°C -7_6 1cm 69% 6mph 5mph 1013mB
12:00 2008m -3°C -3_7 1cm 84% 7mph 7mph 1011mB
15:00 1997m -3°C -3_8 3cm 100% 8mph 9mph 1010mB
18:00 1814m -3°C -3_7 2cm 99% 7mph 9mph 1012mB
21:00 1457m -7°C -7_3 1cm 75% 3mph 4mph 1015mB
0:00 1177m -9°C -9_2 1cm 72% 2mph 3mph 1014mB
Afternoon 0.473958mm 0.625 2030m 0°C 0_4 5cm 88% 4mph 5mph 1009mB
Morning 0.515625mm 0.625 1115m -7°C -7_6 5cm 52% 6mph 6mph 1014mB
Afternoon 0.0104167mm 0.125 2531m 3°C 3_11 0cm 61% 11mph 13mph 1008mB
Morning 0.03125mm 0.25 2061m -2°C -2_12 0cm 94% 12mph 17mph 1010mB
Afternoon 0.0104167mm 0 2801m 6°C 6_14 0cm 99% 14mph 17mph 1004mB
Morning 0.140625mm 0 3088m 1°C 1_13 0cm 100% 13mph 18mph 1004mB
Afternoon 0.03125mm 0.1875 2987m 8°C 8_14 0cm 87% 14mph 18mph 999mB
Morning 0.963542mm 0.8125 2502m 2°C 2_7 8cm 91% 7mph 11mph 998mB
Afternoon 1.28646mm 0.4375 2376m 2°C 2_9 10cm 100% 9mph 12mph 1001mB
Morning 0.109375mm 0.75 1567m -4°C -4_8 6cm 100% 8mph 11mph 1010mB
Afternoon 0.489583mm 0.125 1679m -3°C -3_10 4cm 100% 10mph 12mph 1014mB
Morning 0.390625mm 0.125 1127m -7°C -7_6 3cm 99% 6mph 9mph 1022mB

16 day outlook at a glance

Forecast issued: 22/04/2019 08:25:29

Chat

Your comments and questions. In a resort? Let us know what it's like!


Characters left 250

For terms and conditions see Readers Comments on the Cookie and privacy policy page.